Wind_Speed
6 6 4 5 5 5 7 10 8 12 12 9 7 6 8 6 12 10 9 9 8 10 9 9 11 13 12 11 11 12 12 10 9 9 9 9 8 7 6 4 3 2 2 4 4 4 5 6 7
5 4 5 4 1 5 9 14 13 16 12 11 7 6 8 9 9 10 9 9 8 8 10 9 12 13 13 12 13 12 11 11 10 11 11 10 10 10 8 6 4 1 2 5 6 6 7 7 7
5 1 2 2 3 5 6 12 13 12 9 10 9 8 6 8 7 8 10 8 8 7 10 10 13 14 13 12 12 12 12 10 12 11 12 13 14 14 12 13 13 11 8 7 8 10 9 9 9
4 2 4 4 6 12 3 10 11 7 11 12 13 9 7 6 6 7 9 7 9 7 9 10 12 14 14 13 12 12 12 12 12 13 15 17 17 16 15 15 19 17 13 9 12 12 12 12 15
3 6 5 2 6 9 13 3 6 13 15 12 12 9 9 7 6 8 8 7 8 8 9 10 11 13 14 13 12 12 13 12 13 15 18 19 18 18 18 18 19 21 24 22 20 17 17 17 17
7 7 6 6 9 7 11 15 8 7 5 9 7 7 8 5 7 8 7 7 7 7 11 9 10 12 13 13 12 12 13 12 15 17 18 17 19 19 18 18 20 22 22 23 23 21 20 20 18
10 9 3 3 7 6 10 7 4 8 6 1 5 7 6 7 6 4 7 8 8 6 10 10 11 13 13 12 11 12 13 13 15 16 16 16 16 18 17 16 19 20 20 19 19 21 20 19 17
11 11 7 5 7 6 10 8 7 4 6 6 2 7 7 8 6 3 7 7 7 6 9 8 10 12 13 12 11 11 14 13 14 15 16 15 15 15 17 16 14 16 18 16 15 15 18 17 16
13 14 10 4 1 7 12 13 7 2 6 10 8 8 6 6 6 5 8 8 7 6 8 9 9 12 13 13 12 12 13 13 12 14 15 14 16 17 13 15 16 15 16 12 12 13 14 14 16
14 14 13 8 8 6 5 8 7 3 2 7 7 11 7 6 6 7 8 9 7 7 8 8 7 11 13 14 13 12 12 12 12 13 12 12 14 12 13 14 13 14 15 15 11 11 12 11 15
18 20 14 12 10 2 3 8 7 7 7 9 11 12 8 6 7 9 5 7 8 8 6 10 8 11 12 14 14 12 12 11 10 10 10 10 13 12 13 13 10 17 15 11 13 14 13 13 15
21 24 18 12 12 6 10 12 5 4 7 9 13 12 8 6 8 12 9 8 8 8 7 10 11 11 13 13 13 11 10 11 9 8 8 7 12 12 12 13 16 14 16 16 13 14 16 15 15
23 28 22 16 15 4 9 11 2 9 8 13 15 13 11 7 8 11 8 8 6 9 10 12 12 12 13 14 16 11 10 10 10 10 6 5 11 13 11 11 14 15 17 18 16 16 15 15 15
24 25 23 19 14 16 16 7 7 2 7 9 14 11 11 10 13 14 12 10 9 11 9 12 13 13 13 14 14 14 11 10 8 9 7 8 10 11 9 9 13 14 13 15 17 16 16 16 15
25 14 7 16 19 18 17 15 11 6 11 8 11 8 9 10 15 19 17 16 14 12 11 14 15 15 14 13 12 14 11 8 8 6 5 7 9 12 10 11 12 12 13 13 15 17 16 15 16
25 18 8 6 14 18 14 15 13 6 9 12 12 8 9 10 14 17 17 15 14 14 15 16 15 15 16 11 12 14 11 8 9 7 5 5 11 12 11 12 10 14 11 12 13 14 14 16 17
24 22 18 12 17 20 17 15 12 14 14 13 13 12 9 9 12 19 18 17 16 15 17 16 17 16 15 13 11 11 12 10 9 9 7 9 11 10 11 11 9 13 12 13 12 11 13 13 15
19 21 25 22 18 25 25 20 20 16 6 11 12 10 8 11 14 21 19 16 16 14 15 16 17 17 13 12 9 10 12 11 10 9 9 11 11 12 12 10 10 10 11 11 13 11 11 13 14
23 24 28 26 25 21 24 18 17 15 9 6 6 13 7 11 14 21 19 18 16 15 16 18 19 20 16 14 12 9 8 12 8 10 10 10 10 12 13 11 8 10 10 10 10 9 12 11 10
25 24 25 29 29 23 22 25 25 22 17 10 14 13 9 11 13 20 19 17 20 20 20 21 22 23 18 15 12 9 8 10 9 10 10 11 9 9 11 12 11 11 11 10 9 8 10 11 10
28 21 25 30 32 31 25 23 23 20 17 14 13 12 11 13 17 20 21 19 19 21 22 24 24 22 18 16 14 10 11 8 11 12 12 12 10 10 10 13 11 11 11 11 10 10 9 11 10
30 21 26 31 33 32 29 27 24 24 22 16 15 12 14 17 12 16 21 21 20 22 24 26 25 22 20 17 17 15 11 10 11 12 13 12 11 12 8 10 12 11 11 12 10 9 10 9 11
25 31 33 38 35 33 32 30 26 25 19 17 10 7 14 25 18 18 21 21 24 21 23 27 27 24 21 21 19 16 12 11 11 13 14 13 12 11 10 8 8 9 7 8 10 9 11 8 10
32 33 37 40 40 38 33 30 28 22 13 13 12 9 11 22 21 20 24 22 20 21 21 25 26 23 21 20 18 16 15 14 13 14 14 13 12 11 9 7 6 8 7 9 10 11 11 9 10
35 35 34 38 41 40 33 31 24 21 19 16 9 13 17 34 20 19 20 19 18 18 18 23 26 23 21 20 19 17 17 15 14 13 14 14 14 12 9 7 7 7 8 7 9 9 12 11 11
35 36 36 36 38 41 37 35 28 25 23 22 19 17 14 32 25 17 18 20 21 22 22 21 24 27 24 22 22 21 18 17 15 15 15 13 13 13 11 9 8 10 9 9 9 8 10 12 12
35 36 35 39 40 43 39 38 35 32 30 28 22 19 15 24 25 22 19 18 21 24 26 24 25 28 28 24 23 23 20 18 18 18 16 13 11 11 12 12 12 10 9 9 9 8 7 9 12
39 39 40 39 42 42 37 42 43 41 39 33 28 21 23 28 24 23 23 17 17 24 28 25 25 26 29 30 26 24 24 22 21 20 18 16 15 13 11 12 12 11 9 7 7 7 6 6 9
43 42 44 42 42 41 38 40 43 46 44 40 34 30 29 29 20 22 31 28 25 23 23 25 26 25 24 27 30 27 25 25 23 20 18 16 15 13 14 13 11 10 11 8 5 5 4 4 4
44 44 45 46 48 46 43 42 44 39 42 41 34 31 35 32 28 27 23 30 28 29 27 23 23 28 28 28 30 31 30 28 27 24 22 19 17 16 16 14 13 12 11 9 7 4 3 3 3
Wind_Direction
190 193 220 239 247 254 246 244 213 153 172 173 133 102 108 82 71 61 65 71 90 96 109 112 110 106 97 91 101 104 104 101 89 73 60 49 36 20 1 341 304 273 187 161 145 114 91 79 73
160 169 183 181 260 283 271 267 198 142 160 159 137 103 89 68 79 56 74 75 80 97 108 113 112 109 100 96 95 99 95 87 80 69 63 57 41 35 24 19 2 305 205 174 153 124 117 97 79
124 153 254 187 329 291 290 313 146 167 173 161 132 116 106 90 84 61 68 88 89 95 104 124 119 113 107 104 100 102 96 91 82 79 73 56 49 50 57 59 74 80 98 130 129 125 112 90 78
138 92 108 64 348 341 323 311 265 174 186 158 131 121 118 126 76 78 80 102 102 105 108 131 128 119 118 115 113 109 104 90 89 84 75 62 56 57 64 79 81 76 82 115 119 107 101 95 90
192 183 124 358 331 349 334 282 87 165 198 159 137 114 114 129 93 79 92 103 110 116 120 143 136 124 121 118 119 115 105 98 95 87 78 65 59 61 66 72 76 78 83 95 106 108 100 97 98
199 202 128 346 13 347 359 129 111 112 200 125 131 115 117 108 84 91 108 110 107 130 133 145 144 129 125 125 123 114 106 98 96 89 82 72 63 64 68 74 80 80 86 98 104 104 102 98 97
216 224 223 297 321 350 63 92 113 74 45 184 127 132 125 106 64 96 111 117 124 141 142 150 158 142 133 129 122 117 110 95 93 93 87 75 70 66 66 78 87 87 87 89 99 105 101 95 94
217 231 209 250 336 328 313 112 74 65 6 115 92 167 150 117 87 112 110 112 130 149 152 158 158 147 137 133 128 125 112 104 98 90 81 77 74 69 70 68 83 94 93 95 93 91 95 97 90
224 238 235 256 317 14 73 93 68 73 59 150 161 153 132 106 109 136 127 128 141 151 163 160 168 153 146 140 139 129 117 107 97 88 85 81 81 74 79 83 79 80 82 83 91 91 94 106 94
224 236 229 234 275 278 91 133 138 103 158 123 138 158 153 125 134 144 148 140 148 163 169 165 179 158 154 146 134 131 117 107 97 93 92 91 85 71 75 78 89 86 85 79 102 102 101 99 100
230 231 220 220 241 144 153 178 158 153 174 161 159 155 156 153 151 138 144 138 155 160 181 173 175 175 159 146 138 138 120 107 94 92 92 85 86 80 83 76 86 74 90 96 83 102 110 104 96
232 240 222 207 233 224 142 176 181 197 228 182 167 151 147 195 179 151 143 150 169 154 187 189 171 182 161 146 134 133 117 102 83 77 86 85 99 89 74 68 76 83 78 103 76 90 106 105 96
232 238 234 215 203 221 122 117 165 219 239 193 176 158 147 198 199 161 152 150 164 170 190 184 177 177 162 150 138 125 105 93 88 78 83 91 94 92 89 76 79 84 87 102 97 97 101 101 100
231 239 238 232 222 241 232 181 166 153 168 168 173 171 158 200 193 166 159 167 161 183 170 182 177 173 167 148 135 118 110 95 92 79 92 92 97 92 94 94 91 92 92 96 98 98 102 103 103
233 249 245 236 233 242 225 199 168 217 211 189 158 176 179 205 199 176 180 168 166 174 159 182 176 170 169 155 138 118 109 120 110 91 99 87 104 103 85 99 100 100 103 97 92 96 100 99 104
233 242 234 208 219 218 201 183 188 201 200 205 193 186 183 215 212 182 182 176 162 165 161 177 171 177 165 153 146 128 123 116 118 119 133 125 107 99 94 97 111 108 106 103 97 94 97 100 95
229 236 239 221 208 200 190 181 193 216 205 229 198 187 170 222 210 188 187 177 165 165 163 172 173 172 161 166 151 138 123 114 117 120 138 143 114 107 99 92 100 116 114 105 106 103 94 92 92
223 224 236 229 221 203 194 192 193 201 179 169 196 203 186 205 201 182 187 180 163 167 171 169 174 163 161 163 159 145 130 117 120 136 147 127 107 114 106 103 106 110 112 120 119 121 113 108 104
211 214 217 232 227 214 209 197 189 207 175 171 198 197 224 206 201 184 190 179 165 171 175 172 172 161 168 161 160 156 140 125 138 137 132 119 113 126 128 133 117 123 124 130 126 139 130 123 123
213 211 212 215 227 223 214 208 207 200 181 170 189 210 220 217 201 187 191 174 172 180 178 174 169 164 166 164 158 160 153 131 138 132 131 135 117 124 133 126 123 119 118 120 131 142 136 135 140
215 210 212 209 219 225 223 217 219 213 198 192 201 220 208 207 201 189 187 185 179 179 179 173 174 171 167 164 152 153 144 153 149 139 139 137 139 130 132 124 122 117 117 120 126 124 124 129 134
220 199 208 216 224 225 224 218 215 212 213 208 201 242 225 197 191 191 197 180 184 185 184 178 176 176 171 170 161 168 166 163 150 138 142 146 142 128 121 117 119 121 127 128 124 122 125 133 131
218 207 200 211 226 230 231 226 221 220 214 211 213 197 205 196 191 190 194 202 192 181 185 190 180 173 173 175 177 169 163 158 158 142 146 142 136 127 126 130 128 116 110 117 122 129 122 130 132
217 219 210 212 224 232 232 235 230 226 221 223 215 200 207 189 198 186 198 199 201 192 192 197 185 177 176 180 176 174 164 169 164 151 151 145 135 133 131 136 127 114 107 102 116 122 126 129 140
226 224 224 221 225 234 230 237 227 229 225 219 233 217 175 204 204 192 201 203 201 200 203 197 189 183 190 189 180 178 173 172 169 162 159 160 147 147 140 144 130 108 98 101 109 117 121 130 143
229 228 227 228 232 230 226 231 238 226 230 225 202 194 185 197 190 198 198 199 192 197 203 199 191 188 193 197 188 183 182 173 166 172 171 175 163 159 148 153 140 122 110 103 103 114 125 137 142
225 230 230 227 231 231 226 229 227 232 227 227 218 199 178 189 178 230 208 203 194 197 204 195 191 194 195 198 197 188 188 184 180 182 182 185 191 185 156 159 155 138 122 109 104 108 114 132 148
225 228 227 228 230 233 227 227 229 226 233 228 222 209 185 186 196 189 193 187 212 202 206 204 197 197 198 204 205 201 193 196 197 191 190 191 197 193 178 173 168 156 143 132 119 115 119 133 150
226 226 230 230 229 232 232 226 231 229 229 233 230 220 204 192 185 200 207 218 204 208 204 207 205 204 208 211 213 211 207 204 209 205 204 199 200 198 195 187 184 183 166 161 147 133 127 139 159
229 229 231 232 232 233 235 229 232 227 225 226 229 223 203 188 185 198 205 191 197 200 202 195 202 213 207 211 215 215 213 213 212 213 213 210 208 204 204 201 197 204 195 187 177 170 174 177 200
Height
5880 5881 5882 5883 5886 5884 5884 5884 5883 5885 5886 5888 5888 5888 5890 5890 5890 5893 5891 5891 5890 5890 5891 5891 5892 5893 5893 5894 5896 5897 5897 5897 5898 5897 5897 5896 5895 5894 5894 5893 5892 5892 5894 5895 5896 5897 5897 5898 5897
5880 5882 5883 5884 5885 5883 5883 5879 5882 5880 5884 5886 5888 5888 5890 5891 5890 5892 5892 5892 5892 5892 5892 5894 5895 5895 5896 5897 5898 5898 5898 5899 5899 5898 5897 5896 5896 5895 5893 5892 5891 5891 5893 5895 5897 5898 5899 5898 5897
5882 5882 5883 5884 5883 5883 5881 5877 5874 5877 5884 5885 5886 5889 5890 5891 5893 5893 5893 5893 5894 5895 5895 5896 5896 5896 5898 5900 5901 5900 5901 5901 5901 5900 5900 5899 5898 5896 5895 5894 5892 5892 5893 5895 5897 5898 5900 5900 5900
5884 5884 5885 5884 5883 5882 5876 5879 5880 5879 5881 5881 5883 5888 5891 5894 5895 5894 5894 5895 5895 5897 5897 5899 5899 5899 5900 5902 5904 5903 5903 5904 5904 5903 5903 5902 5900 5899 5898 5897 5895 5894 5894 5895 5899 5901 5902 5903 5903
5884 5884 5884 5884 5882 5881 5879 5879 5877 5880 5882 5882 5887 5891 5894 5895 5896 5895 5895 5896 5897 5898 5899 5901 5902 5902 5903 5904 5905 5905 5906 5907 5906 5906 5905 5904 5903 5902 5901 5900 5899 5897 5896 5897 5900 5903 5905 5905 5905
5884 5884 5885 5884 5883 5882 5879 5877 5881 5883 5885 5886 5887 5891 5894 5896 5895 5895 5896 5897 5898 5899 5900 5902 5903 5904 5905 5906 5907 5907 5908 5908 5908 5908 5907 5906 5907 5905 5904 5903 5903 5903 5903 5903 5904 5905 5907 5907 5907
5884 5884 5884 5885 5885 5885 5881 5878 5882 5884 5884 5886 5889 5891 5894 5895 5896 5897 5897 5898 5899 5901 5902 5904 5905 5906 5907 5908 5909 5910 5910 5911 5910 5910 5909 5910 5910 5909 5908 5907 5907 5908 5908 5909 5909 5909 5910 5910 5910
5883 5883 5884 5885 5886 5886 5885 5884 5884 5884 5886 5887 5889 5892 5893 5894 5898 5898 5899 5899 5900 5903 5904 5905 5907 5908 5909 5910 5911 5912 5912 5912 5913 5913 5913 5913 5913 5913 5912 5912 5912 5911 5911 5912 5913 5914 5913 5912 5913
5881 5882 5885 5887 5885 5886 5885 5885 5885 5888 5887 5888 5890 5893 5894 5896 5898 5899 5900 5901 5903 5905 5905 5906 5909 5910 5910 5912 5913 5913 5914 5915 5915 5916 5915 5915 5916 5916 5915 5915 5915 5915 5915 5915 5915 5916 5917 5916 5916
5879 5881 5883 5886 5886 5886 5885 5885 5886 5888 5889 5889 5892 5892 5894 5896 5898 5900 5900 5901 5903 5906 5906 5908 5911 5912 5912 5913 5915 5916 5917 5917 5917 5918 5918 5918 5918 5919 5917 5918 5918 5918 5918 5918 5918 5918 5920 5920 5920
5877 5877 5882 5885 5885 5886 5886 5887 5887 5887 5889 5890 5892 5892 5893 5896 5898 5899 5901 5901 5902 5906 5908 5910 5912 5913 5913 5914 5916 5918 5918 5919 5920 5920 5920 5920 5920 5921 5920 5921 5920 5921 5921 5921 5921 5922 5922 5922 5922
5874 5872 5880 5885 5887 5885 5884 5886 5887 5888 5889 5891 5892 5893 5893 5895 5896 5900 5901 5901 5903 5905 5909 5912 5913 5914 5914 5915 5918 5919 5921 5920 5921 5923 5923 5922 5923 5923 5923 5924 5924 5924 5924 5924 5923 5924 5925 5925 5925
5870 5869 5877 5882 5886 5885 5886 5886 5886 5888 5886 5888 5892 5893 5893 5894 5895 5898 5901 5901 5903 5906 5909 5912 5913 5914 5915 5917 5918 5920 5921 5922 5923 5925 5925 5925 5925 5925 5925 5926 5927 5927 5927 5928 5928 5929 5929 5928 5928
5865 5867 5875 5881 5886 5886 5887 5886 5887 5887 5887 5884 5890 5893 5894 5895 5896 5898 5899 5902 5904 5907 5910 5911 5913 5915 5916 5918 5918 5920 5922 5923 5925 5925 5927 5929 5927 5928 5928 5929 5929 5929 5930 5931 5931 5932 5933 5932 5932
5863 5869 5874 5878 5881 5883 5884 5885 5886 5887 5887 5886 5888 5892 5894 5896 5897 5897 5898 5900 5904 5906 5909 5910 5913 5916 5917 5919 5919 5920 5923 5924 5925 5926 5928 5931 5930 5931 5931 5931 5931 5932 5933 5933 5933 5934 5936 5936 5935
5863 5867 5872 5875 5875 5879 5882 5883 5884 5885 5884 5886 5887 5892 5894 5897 5898 5897 5898 5899 5903 5905 5908 5910 5913 5916 5918 5920 5921 5921 5923 5924 5925 5928 5930 5932 5932 5932 5934 5932 5933 5935 5936 5936 5936 5936 5938 5938 5937
5860 5862 5866 5872 5871 5873 5877 5879 5883 5883 5884 5884 5885 5890 5893 5896 5898 5898 5897 5899 5902 5906 5906 5909 5913 5916 5918 5920 5922 5923 5923 5925 5927 5928 5931 5933 5933 5934 5935 5935 5935 5936 5936 5937 5939 5939 5939 5940 5939
5856 5860 5860 5866 5869 5869 5869 5872 5877 5878 5880 5881 5886 5888 5891 5894 5897 5897 5897 5899 5900 5904 5906 5908 5912 5916 5919 5920 5922 5923 5924 5925 5929 5930 5933 5934 5934 5935 5936 5937 5937 5937 5937 5939 5940 5941 5941 5942 5943
5851 5855 5858 5859 5863 5869 5871 5872 5874 5876 5879 5882 5883 5887 5890 5891 5893 5897 5897 5900 5901 5904 5907 5908 5912 5916 5919 5920 5922 5923 5924 5925 5930 5931 5933 5934 5935 5937 5939 5939 5940 5940 5940 5941 5941 5943 5943 5945 5947
5846 5850 5854 5855 5855 5862 5866 5868 5871 5872 5874 5879 5882 5885 5888 5890 5892 5896 5896 5898 5900 5904 5908 5909 5912 5916 5918 5920 5922 5925 5926 5926 5931 5932 5933 5935 5936 5937 5940 5941 5942 5942 5942 5943 5945 5946 5946 5947 5948
5842 5849 5849 5850 5850 5854 5862 5866 5868 5874 5875 5878 5879 5882 5885 5888 5890 5893 5895 5898 5900 5902 5906 5909 5911 5914 5917 5921 5922 5926 5926 5929 5932 5933 5933 5935 5938 5940 5942 5942 5943 5943 5944 5946 5947 5947 5948 5948 5949
5839 5846 5845 5845 5847 5851 5857 5862 5865 5869 5872 5876 5877 5878 5882 5886 5889 5894 5895 5896 5900 5900 5903 5908 5910 5913 5917 5921 5921 5924 5926 5930 5932 5933 5935 5935 5938 5940 5942 5943 5944 5946 5947 5948 5949 5949 5948 5949 5950
5837 5840 5842 5842 5843 5847 5850 5857 5861 5864 5869 5874 5876 5877 5878 5882 5887 5891 5893 5896 5897 5899 5900 5907 5909 5911 5916 5920 5922 5924 5927 5929 5932 5933 5936 5936 5939 5940 5943 5945 5946 5946 5947 5948 5949 5950 5950 5951 5951
5826 5831 5836 5837 5839 5841 5847 5852 5857 5864 5868 5870 5872 5874 5877 5881 5883 5885 5888 5891 5895 5897 5901 5907 5908 5910 5915 5919 5922 5925 5926 5929 5931 5932 5936 5937 5938 5941 5944 5946 5948 5947 5948 5949 5950 5950 5951 5952 5953
5821 5825 5831 5835 5835 5838 5844 5846 5856 5860 5864 5867 5870 5871 5873 5878 5881 5885 5887 5891 5895 5899 5904 5905 5907 5910 5914 5918 5921 5924 5926 5928 5930 5932 5935 5937 5937 5941 5944 5946 5948 5948 5948 5950 5951 5951 5951 5953 5955
5814 5818 5824 5829 5831 5834 5839 5842 5847 5854 5857 5861 5862 5866 5869 5871 5879 5884 5887 5888 5891 5895 5901 5904 5904 5906 5912 5916 5919 5922 5925 5926 5928 5933 5934 5938 5938 5941 5943 5946 5947 5949 5950 5951 5951 5952 5953 5954 5956
5807 5811 5818 5821 5823 5827 5833 5837 5842 5846 5851 5855 5860 5865 5866 5870 5878 5882 5885 5887 5888 5893 5899 5900 5902 5904 5909 5913 5916 5921 5924 5926 5928 5930 5934 5937 5939 5941 5942 5946 5947 5949 5950 5951 5952 5954 5955 5956 5958
5796 5801 5807 5811 5815 5819 5827 5830 5830 5836 5840 5849 5856 5864 5867 5868 5872 5876 5881 5885 5887 5891 5896 5898 5901 5904 5906 5911 5915 5919 5922 5925 5928 5930 5932 5935 5938 5940 5942 5945 5946 5948 5950 5952 5953 5954 5955 5956 5957
5788 5790 5796 5804 5807 5810 5819 5821 5822 5828 5835 5841 5848 5856 5862 5862 5864 5869 5873 5876 5881 5886 5891 5893 5897 5901 5907 5911 5915 5917 5920 5923 5926 5929 5932 5935 5937 5939 5941 5943 5945 5947 5948 5950 5952 5954 5955 5957 5957
5778 5783 5788 5792 5797 5802 5807 5813 5813 5821 5827 5834 5841 5847 5855 5859 5860 5861 5865 5869 5875 5878 5882 5887 5890 5896 5900 5905 5910 5914 5916 5921 5924 5926 5929 5933 5935 5937 5939 5940 5943 5945 5947 5949 5951 5953 5954 5955 5957